| time (UTC) | temp F | wind direction | speed MPH | gust MPH | rain 1hr in | rain 24hr in | rain mn in | humidity % | barometer mb |
| 20260506084005 | 45 | 22 | 1.0 | 2.0 | 0.00 | 0.00 | 0.00 | 67 | 1016.9 |
| 20260506083505 | 45 | 9 | 1.0 | 5.0 | 0.00 | 0.00 | 0.00 | 70 | 1017.3 |
| 20260506083005 | 45 | 357 | 2.0 | 8.0 | 0.00 | 0.00 | 0.00 | 70 | 1016.9 |
| 20260506082005 | 44 | 332 | 3.0 | 5.0 | 0.00 | 0.00 | 0.00 | 72 | 1016.9 |
| 20260506081505 | 44 | 358 | 2.0 | 8.0 | 0.00 | 0.00 | 0.00 | 72 | 1016.9 |
| 20260506081005 | 44 | 28 | 5.0 | 8.0 | 0.00 | 0.00 | 0.00 | 72 | 1016.9 |
| 20260506080505 | 44 | 310 | 0.0 | 8.0 | 0.00 | 0.00 | 0.00 | 73 | 1016.9 |
| 20260506072505 | 43 | 352 | 2.0 | 5.0 | 0.00 | 0.00 | 0.00 | 74 | 1016.9 |
| 20260506072027 | 43 | 330 | 1.0 | 5.0 | 0.00 | 0.00 | 0.00 | 75 | 1016.9 |
| 20260506071505 | 43 | 17 | 3.0 | 5.0 | 0.00 | 0.00 | 0.00 | 75 | 1016.9 |
| 20260506071005 | 43 | 283 | 3.0 | 5.0 | 0.00 | 0.00 | 0.00 | 75 | 1016.9 |
| 20260506070505 | 43 | 265 | 0.0 | 2.0 | 0.00 | 0.00 | 0.00 | 75 | 1016.9 |
| 20260506062505 | 43 | 242 | 2.0 | 5.0 | 0.00 | 0.00 | 0.00 | 71 | 1016.9 |
| 20260506062007 | 43 | 284 | 2.0 | 5.0 | 0.00 | 0.00 | 0.00 | 71 | 1016.6 |
| 20260506061506 | 43 | 283 | 1.0 | 5.0 | 0.00 | 0.00 | 0.00 | 71 | 1016.6 |
| 20260506061005 | 43 | 266 | 0.0 | 2.0 | 0.00 | 0.00 | 0.00 | 71 | 1016.6 |
| 20260506051006 | 38 | 343 | 1.0 | 2.0 | 0.00 | 0.00 | 0.00 | 78 | 1016.6 |
| 20260506050505 | 38 | 293 | 1.0 | 2.0 | 0.00 | 0.00 | 0.00 | 79 | 1016.3 |
| 20260506045005 | 38 | 275 | 1.0 | 2.0 | 0.00 | 0.00 | 0.00 | 80 | 1016.6 |
| 20260506044505 | 38 | 267 | 0.0 | 0.0 | 0.00 | 0.00 | 0.00 | 80 | 1016.6 |
| 20260506043505 | 38 | 269 | 0.0 | 0.0 | 0.00 | 0.00 | 0.00 | 80 | 1016.6 |
| 20260506042505 | 39 | 282 | 0.0 | 5.0 | 0.00 | 0.00 | 0.00 | 80 | 1016.6 |
| 20260506042006 | 39 | 284 | 2.0 | 5.0 | 0.00 | 0.00 | 0.00 | 80 | 1016.6 |
| 20260506041505 | 39 | 242 | 0.0 | 0.0 | 0.00 | 0.00 | 0.00 | 80 | 1016.6 |
| 20260506041006 | 39 | 252 | 0.0 | 0.0 | 0.00 | 0.00 | 0.00 | 80 | 1016.6 |
| 20260506040505 | 39 | 293 | 0.0 | 0.0 | 0.00 | 0.00 | 0.00 | 80 | 1016.6 |
| 20260506040005 | 39 | 234 | 0.0 | 0.0 | 0.00 | 0.00 | 0.00 | 81 | 1016.3 |
| 20260506035505 | 39 | 298 | 0.0 | 2.0 | 0.00 | 0.00 | 0.00 | 81 | 1016.3 |
| 20260506035006 | 39 | 286 | 1.0 | 2.0 | 0.00 | 0.00 | 0.00 | 81 | 1016.3 |
| 20260506034005 | 39 | 285 | 0.0 | 2.0 | 0.00 | 0.00 | 0.00 | 81 | 1016.5 |
| 20260506033505 | 39 | 278 | 0.0 | 2.0 | 0.00 | 0.00 | 0.00 | 80 | 1016.8 |
| 20260506033006 | 39 | 283 | 1.0 | 2.0 | 0.00 | 0.00 | 0.00 | 80 | 1016.7 |
| 20260506032505 | 39 | 272 | 0.0 | 2.0 | 0.00 | 0.00 | 0.00 | 80 | 1016.6 |
| 20260506032005 | 39 | 261 | 0.0 | 2.0 | 0.00 | 0.00 | 0.00 | 80 | 1016.6 |
| 20260506031006 | 39 | 291 | 1.0 | 2.0 | 0.00 | 0.00 | 0.00 | 79 | 1016.6 |
| 20260506030505 | 39 | 301 | 1.0 | 2.0 | 0.00 | 0.00 | 0.00 | 79 | 1016.6 |
| 20260506030005 | 40 | 296 | 1.0 | 2.0 | 0.00 | 0.00 | 0.00 | 79 | 1016.6 |
| 20260506025505 | 40 | 322 | 1.0 | 2.0 | 0.00 | 0.00 | 0.00 | 79 | 1016.9 |
| 20260506025005 | 40 | 280 | 1.0 | 2.0 | 0.00 | 0.00 | 0.00 | 78 | 1016.6 |
| 20260506024505 | 40 | 303 | 0.0 | 2.0 | 0.00 | 0.00 | 0.00 | 78 | 1016.6 |
| 20260506024005 | 40 | 293 | 0.0 | 2.0 | 0.00 | 0.00 | 0.00 | 78 | 1016.6 |
| 20260506023505 | 40 | 290 | 0.0 | 2.0 | 0.00 | 0.00 | 0.00 | 78 | 1016.6 |
| 20260506022505 | 41 | 229 | 1.0 | 2.0 | 0.00 | 0.00 | 0.00 | 77 | 1016.6 |
| 20260506022005 | 41 | 287 | 1.0 | 2.0 | 0.00 | 0.00 | 0.00 | 77 | 1016.6 |
| 20260506021505 | 41 | 280 | 0.0 | 2.0 | 0.00 | 0.00 | 0.00 | 77 | 1016.3 |
| 20260506021005 | 42 | 296 | 0.0 | 5.0 | 0.00 | 0.00 | 0.00 | 77 | 1016.6 |
| 20260506020506 | 42 | 290 | 3.0 | 5.0 | 0.00 | 0.00 | 0.00 | 76 | 1016.6 |
| 20260506020005 | 42 | 294 | 0.0 | 2.0 | 0.00 | 0.00 | 0.00 | 75 | 1016.6 |
| 20260506015505 | 43 | 287 | 1.0 | 2.0 | 0.00 | 0.00 | 0.00 | 75 | 1016.6 |
| 20260506014505 | 43 | 312 | 5.0 | 8.0 | 0.00 | 0.00 | 0.00 | 75 | 1016.9 |
| 20260506013505 | 43 | 327 | 3.0 | 5.0 | 0.00 | 0.00 | 0.00 | 74 | 1016.6 |
| 20260506013005 | 42 | 63 | 1.0 | 5.0 | 0.00 | 0.00 | 0.00 | 73 | 1016.9 |
| 20260506012505 | 42 | 38 | 3.0 | 5.0 | 0.00 | 0.00 | 0.00 | 71 | 1016.6 |
| 20260506012005 | 42 | 28 | 2.0 | 5.0 | 0.00 | 0.00 | 0.00 | 70 | 1016.6 |
| 20260506011005 | 42 | 57 | 2.0 | 5.0 | 0.00 | 0.00 | 0.00 | 69 | 1016.6 |
| 20260506010506 | 42 | 346 | 3.0 | 5.0 | 0.00 | 0.00 | 0.00 | 70 | 1016.9 |
| 20260506010004 | 42 | 71 | 1.0 | 2.0 | 0.00 | 0.00 | 0.00 | 69 | 1016.6 |
| 20260506005506 | 42 | 13 | 1.0 | 2.0 | 0.00 | 0.00 | 0.00 | 68 | 1016.6 |
| 20260506005005 | 42 | 4 | 0.0 | 5.0 | 0.00 | 0.00 | 0.00 | 67 | 1016.9 |
| 20260506003506 | 42 | 41 | 1.0 | 2.0 | 0.00 | 0.00 | 0.00 | 69 | 1016.6 |
| 20260506003005 | 43 | 57 | 1.0 | 2.0 | 0.00 | 0.00 | 0.00 | 68 | 1016.9 |
| 20260506002506 | 43 | 356 | 1.0 | 2.0 | 0.00 | 0.00 | 0.00 | 68 | 1016.9 |
| 20260506001505 | 43 | 12 | 2.0 | 5.0 | 0.00 | 0.00 | 0.00 | 70 | 1016.9 |
| 20260506001005 | 43 | 20 | 2.0 | 5.0 | 0.00 | 0.00 | 0.00 | 69 | 1016.9 |
| 20260506000507 | 43 | 309 | 3.0 | 8.0 | 0.00 | 0.00 | 0.00 | 69 | 1016.9 |
| 20260506000005 | 43 | 258 | 3.0 | 8.0 | 0.00 | 0.00 | 0.00 | 69 | 1016.9 |
| 20260505235005 | 43 | 333 | 2.0 | 5.0 | 0.00 | 0.00 | 0.00 | 70 | 1016.9 |
| 20260505234006 | 43 | 318 | 2.0 | 8.0 | 0.00 | 0.00 | 0.00 | 69 | 1016.9 |
| 20260505233505 | 43 | 62 | 5.0 | 8.0 | 0.00 | 0.00 | 0.00 | 70 | 1016.9 |
| 20260505233006 | 43 | 60 | 1.0 | 5.0 | 0.00 | 0.00 | 0.00 | 70 | 1017.3 |
| 20260505232506 | 43 | 28 | 3.0 | 5.0 | 0.00 | 0.00 | 0.00 | 70 | 1016.9 |
| 20260505232005 | 43 | 336 | 1.0 | 8.0 | 0.00 | 0.00 | 0.00 | 70 | 1017.3 |
| 20260505231006 | 43 | 95 | 3.0 | 5.0 | 0.00 | 0.00 | 0.00 | 72 | 1017.3 |
| 20260505230005 | 44 | 280 | 0.0 | 2.0 | 0.00 | 0.00 | 0.00 | 72 | 1017.3 |
| 20260505224005 | 44 | 75 | 1.0 | 2.0 | 0.00 | 0.00 | 0.00 | 72 | 1017.3 |
| 20260505223005 | 44 | 76 | 1.0 | 8.0 | 0.00 | 0.00 | 0.00 | 72 | 1017.3 |
| 20260505222505 | 44 | 27 | 5.0 | 8.0 | 0.00 | 0.00 | 0.00 | 71 | 1016.9 |
| 20260505222005 | 44 | 7 | 3.0 | 5.0 | 0.00 | 0.00 | 0.00 | 72 | 1017.3 |
| 20260505221505 | 44 | 332 | 1.0 | 8.0 | 0.00 | 0.00 | 0.00 | 73 | 1016.9 |
| 20260505220005 | 44 | 31 | 3.0 | 5.0 | 0.00 | 0.00 | 0.00 | 72 | 1017.3 |
| 20260505215505 | 44 | 73 | 1.0 | 2.0 | 0.00 | 0.00 | 0.00 | 73 | 1017.3 |
| 20260505215006 | 44 | 354 | 1.0 | 5.0 | 0.00 | 0.00 | 0.00 | 74 | 1016.9 |
| 20260505214505 | 44 | 30 | 1.0 | 5.0 | 0.00 | 0.00 | 0.00 | 75 | 1017.3 |
| 20260505213005 | 44 | 20 | 1.0 | 5.0 | 0.00 | 0.00 | 0.00 | 74 | 1017.3 |
| 20260505212505 | 44 | 0 | 1.0 | 2.0 | 0.00 | 0.00 | 0.00 | 74 | 1017.3 |
| 20260505212005 | 44 | 44 | 3.0 | 8.0 | 0.00 | 0.00 | 0.00 | 74 | 1017.3 |
| 20260505211506 | 44 | 99 | 5.0 | 8.0 | 0.00 | 0.00 | 0.00 | 75 | 1017.3 |
| 20260505205506 | 44 | 42 | 2.0 | 5.0 | 0.00 | 0.00 | 0.00 | 75 | 1017.6 |
| 20260505205005 | 44 | 66 | 2.0 | 5.0 | 0.00 | 0.00 | 0.00 | 74 | 1017.3 |
| 20260505204505 | 44 | 13 | 1.0 | 5.0 | 0.00 | 0.00 | 0.00 | 75 | 1017.3 |
| 20260505203005 | 44 | 347 | 5.0 | 10.0 | 0.00 | 0.00 | 0.00 | 75 | 1017.3 |
| 20260505202006 | 44 | 31 | 3.0 | 8.0 | 0.00 | 0.00 | 0.00 | 76 | 1017.6 |
| 20260505201006 | 45 | 355 | 3.0 | 8.0 | 0.00 | 0.00 | 0.00 | 78 | 1017.3 |
| 20260505200505 | 45 | 355 | 3.0 | 8.0 | 0.00 | 0.00 | 0.00 | 78 | 1017.3 |
| 20260505200006 | 45 | 355 | 3.0 | 8.0 | 0.00 | 0.00 | 0.00 | 78 | 1017.3 |
| 20260505195533 | 45 | 355 | 3.0 | 8.0 | 0.00 | 0.00 | 0.00 | 78 | 1017.3 |
| 20260505194507 | 45 | 85 | 3.0 | 8.0 | 0.00 | 0.00 | 0.00 | 79 | 1016.9 |
| 20260505193507 | 45 | 69 | 3.0 | 8.0 | 0.00 | 0.00 | 0.00 | 80 | 1017.2 |
| 20260505193016 | 45 | 348 | 2.0 | 5.0 | 0.00 | 0.00 | 0.00 | 80 | 1017.0 |
| 20260505192505 | 45 | 340 | 3.0 | 5.0 | 0.00 | 0.00 | 0.00 | 79 | 1016.9 |
| 20260505192019 | 45 | 23 | 3.0 | 8.0 | 0.00 | 0.00 | 0.00 | 79 | 1016.9 |
| 20260505191505 | 45 | 68 | 5.0 | 8.0 | 0.00 | 0.00 | 0.00 | 79 | 1016.9 |
| 20260505190507 | 46 | 80 | 5.0 | 10.0 | 0.00 | 0.00 | 0.00 | 79 | 1016.9 |
| 20260505190005 | 46 | 63 | 7.0 | 10.0 | 0.00 | 0.00 | 0.00 | 80 | 1016.6 |
| 20260505185505 | 46 | 26 | 7.0 | 13.0 | 0.00 | 0.00 | 0.00 | 81 | 1016.9 |
| 20260505185005 | 46 | 82 | 7.0 | 13.0 | 0.00 | 0.00 | 0.00 | 81 | 1016.6 |
| 20260505184505 | 46 | 355 | 7.0 | 13.0 | 0.00 | 0.00 | 0.00 | 80 | 1016.9 |
| 20260505184006 | 46 | 350 | 3.0 | 10.0 | 0.00 | 0.00 | 0.00 | 80 | 1016.6 |
| 20260505183506 | 46 | 357 | 8.0 | 10.0 | 0.00 | 0.00 | 0.00 | 79 | 1016.9 |
| 20260505182505 | 46 | 354 | 7.0 | 10.0 | 0.00 | 0.00 | 0.00 | 75 | 1016.6 |
| 20260505181505 | 46 | 32 | 6.0 | 13.0 | 0.00 | 0.00 | 0.00 | 75 | 1016.6 |
| 20260505181005 | 46 | 301 | 3.0 | 15.0 | 0.00 | 0.00 | 0.00 | 76 | 1016.9 |
| 20260505180505 | 46 | 10 | 8.0 | 15.0 | 0.00 | 0.00 | 0.00 | 75 | 1016.6 |
| 20260505175505 | 46 | 9 | 6.0 | 15.0 | 0.00 | 0.00 | 0.00 | 75 | 1016.9 |
| 20260505174505 | 46 | 12 | 6.0 | 15.0 | 0.00 | 0.00 | 0.00 | 75 | 1016.7 |
| 20260505173506 | 47 | 161 | 5.0 | 10.0 | 0.00 | 0.00 | 0.00 | 76 | 1016.9 |
| 20260505173006 | 47 | 119 | 6.0 | 10.0 | 0.00 | 0.00 | 0.00 | 76 | 1016.9 |
| 20260505172506 | 47 | 350 | 3.0 | 10.0 | 0.00 | 0.00 | 0.00 | 76 | 1016.9 |
| 20260505172005 | 47 | 22 | 2.0 | 10.0 | 0.00 | 0.00 | 0.00 | 75 | 1016.9 |
| 20260505171513 | 47 | 18 | 3.0 | 10.0 | 0.00 | 0.00 | 0.00 | 76 | 1016.6 |
| 20260505170506 | 47 | 12 | 5.0 | 10.0 | 0.00 | 0.00 | 0.00 | 76 | 1016.6 |
| 20260505165505 | 47 | 0 | 8.0 | 13.0 | 0.00 | 0.00 | 0.00 | 75 | 1016.6 |
| 20260505165008 | 48 | 12 | 5.0 | 10.0 | 0.00 | 0.00 | 0.00 | 76 | 1016.6 |
| 20260505164506 | 48 | 76 | 5.0 | 8.0 | 0.00 | 0.00 | 0.00 | 75 | 1016.6 |
| 20260505164005 | 48 | 76 | 5.0 | 10.0 | 0.00 | 0.00 | 0.00 | 75 | 1016.6 |
| 20260505163006 | 48 | 72 | 3.0 | 13.0 | 0.00 | 0.00 | 0.00 | 77 | 1016.6 |
| 20260505162505 | 48 | 3 | 6.0 | 13.0 | 0.00 | 0.00 | 0.00 | 77 | 1016.6 |
| 20260505162008 | 48 | 346 | 8.0 | 13.0 | 0.00 | 0.00 | 0.00 | 76 | 1016.6 |
| 20260505161505 | 48 | 322 | 8.0 | 10.0 | 0.00 | 0.00 | 0.00 | 76 | 1016.3 |
| 20260505161008 | 48 | 17 | 5.0 | 10.0 | 0.00 | 0.00 | 0.00 | 75 | 1016.6 |
| 20260505160506 | 48 | 343 | 6.0 | 13.0 | 0.00 | 0.00 | 0.00 | 76 | 1016.3 |
| 20260505153022 | 47 | 270 | 5.0 | 13.0 | 0.00 | 0.00 | 0.00 | 76 | 1016.6 |
| 20260505152505 | 47 | 21 | 5.0 | 13.0 | 0.00 | 0.00 | 0.00 | 76 | 1016.6 |
| 20260505151505 | 47 | 58 | 5.0 | 10.0 | 0.00 | 0.00 | 0.00 | 76 | 1016.3 |
| 20260505150505 | 48 | 4 | 6.0 | 10.0 | 0.00 | 0.00 | 0.00 | 78 | 1016.6 |
| 20260505140505 | 50 | 17 | 7.0 | 13.0 | 0.00 | 0.00 | 0.00 | 79 | 1016.3 |
| 20260505124505 | 51 | 344 | 7.0 | 15.0 | 0.00 | 0.00 | 0.00 | 74 | 1015.8 |
| 20260505124005 | 51 | 319 | 5.0 | 15.0 | 0.00 | 0.00 | 0.00 | 74 | 1015.9 |
| 20260505123005 | 51 | 314 | 6.0 | 13.0 | 0.00 | 0.00 | 0.00 | 76 | 1015.8 |
| 20260505122506 | 51 | 10 | 7.0 | 13.0 | 0.00 | 0.00 | 0.00 | 76 | 1015.6 |
| 20260505121005 | 52 | 47 | 5.0 | 10.0 | 0.00 | 0.00 | 0.00 | 75 | 1015.6 |
| 20260505120506 | 52 | 53 | 5.0 | 13.0 | 0.00 | 0.00 | 0.00 | 74 | 1015.6 |
| 20260505120006 | 52 | 327 | 9.0 | 17.0 | 0.00 | 0.00 | 0.00 | 74 | 1015.2 |
| 20260505115505 | 52 | 273 | 10.0 | 17.0 | 0.00 | 0.00 | 0.00 | 73 | 1015.6 |
| 20260505115005 | 52 | 353 | 5.0 | 13.0 | 0.00 | 0.00 | 0.00 | 73 | 1015.2 |
| 20260505114505 | 52 | 47 | 6.0 | 13.0 | 0.00 | 0.00 | 0.00 | 73 | 1015.6 |
| 20260505114005 | 52 | 91 | 3.0 | 8.0 | 0.00 | 0.00 | 0.00 | 74 | 1015.2 |
| 20260505113505 | 52 | 344 | 5.0 | 10.0 | 0.00 | 0.00 | 0.00 | 74 | 1015.2 |
| 20260505113006 | 52 | 338 | 5.0 | 13.0 | 0.00 | 0.00 | 0.00 | 74 | 1015.2 |
| 20260505112505 | 51 | 334 | 8.0 | 13.0 | 0.00 | 0.00 | 0.00 | 72 | 1015.2 |
| 20260505112006 | 51 | 3 | 5.0 | 10.0 | 0.00 | 0.00 | 0.00 | 72 | 1015.6 |
| 20260505111516 | 51 | 16 | 7.0 | 10.0 | 0.00 | 0.00 | 0.00 | 71 | 1015.2 |
| 20260505111005 | 51 | 354 | 3.0 | 10.0 | 0.00 | 0.00 | 0.00 | 72 | 1015.2 |
| 20260505110508 | 50 | 6 | 7.0 | 10.0 | 0.00 | 0.00 | 0.00 | 73 | 1015.2 |
| 20260505102005 | 49 | 311 | 3.0 | 8.0 | 0.00 | 0.00 | 0.00 | 87 | 1015.2 |
| 20260505101005 | 49 | 8 | 5.0 | 15.0 | 0.00 | 0.00 | 0.00 | 85 | 1015.2 |
| 20260505100505 | 49 | 15 | 2.0 | 8.0 | 0.00 | 0.00 | 0.00 | 85 | 1015.1 |
| 20260505100007 | 48 | 14 | 4.0 | 10.0 | 0.00 | 0.00 | 0.00 | 85 | 1014.9 |
| 20260505095505 | 48 | 34 | 4.0 | 10.0 | 0.00 | 0.00 | 0.00 | 85 | 1015.0 |
| 20260505095005 | 48 | 23 | 2.0 | 8.0 | 0.00 | 0.00 | 0.00 | 85 | 1015.2 |
| 20260505094505 | 48 | 75 | 2.0 | 5.0 | 0.00 | 0.00 | 0.00 | 85 | 1014.9 |
| 20260505094005 | 49 | 297 | 2.0 | 5.0 | 0.00 | 0.00 | 0.00 | 85 | 1014.9 |
| 20260505093505 | 49 | 359 | 1.0 | 2.0 | 0.00 | 0.00 | 0.00 | 85 | 1014.9 |
| 20260505093005 | 49 | 320 | 2.0 | 8.0 | 0.00 | 0.00 | 0.00 | 84 | 1014.9 |
| 20260505092505 | 49 | 288 | 3.0 | 8.0 | 0.00 | 0.00 | 0.00 | 82 | 1014.9 |
| 20260505092006 | 49 | 1 | 3.0 | 8.0 | 0.00 | 0.00 | 0.00 | 80 | 1014.6 |
| 20260505091506 | 49 | 27 | 2.0 | 5.0 | 0.00 | 0.00 | 0.00 | 79 | 1014.9 |
| 20260505090505 | 50 | 310 | 1.0 | 8.0 | 0.00 | 0.00 | 0.00 | 77 | 1014.9 |
| 20260505090005 | 50 | 320 | 6.0 | 8.0 | 0.00 | 0.00 | 0.00 | 77 | 1014.6 |
| 20260505085505 | 50 | 314 | 3.0 | 8.0 | 0.00 | 0.00 | 0.00 | 76 | 1014.6 |
| 20260505085005 | 50 | 307 | 3.0 | 5.0 | 0.00 | 0.00 | 0.00 | 76 | 1014.9 |